COSMOS 1605

导读

COSMOS 1605是前苏联(独联体CIS)以"宇宙"(COSMOS)系列命名的卫星,于1984年10月11日发射入轨。该系列是苏联最大的卫星家族,涵盖军事侦察、科学实验等多种用途,统一命名方式可隐藏卫星真实任务,提升保密性。作为冷战时期航天活动的一部分,它延续了自1962年开启的"宇宙"系列命名传统,绝大多数该系列卫星已完成任务退役,目前大部分已坠入大气层销毁,部分残骸仍在轨道成为空间碎片。

Basic Information
目录编号:
15359
目录名称:
COSMOS 1605
国际标识:
1984-109A
轨道中心:
EARTH
卫星名称:
COSMOS 1605
卫星全名:
--
卫星状态:
在轨 (已飞行15265 天)
发射日期:
1984-10-11 UTC
国别 :
俄罗斯(独联体) (CIS)
星等 :
--
Orbit Information
数据来源 国际轨道数据 AOE轨道数据
星历时间 2026-07-28T11:44:48+0800
11小时前
查看轨道信息
2026-07-24T08:00:00+0800
4天前
查看轨道信息
半长轴 7358.3km 7358.303km
偏心率 0.0045553 0.0045264
轨道倾角 82.941° 82.942°
近地点辐角 206.245° 217.992°
升交点赤经 121.710° 124.791°
平近点角 267.083° 207.826°
近地点 946.643km 946.859km
远地点 1013.683km 1013.473km
周期 104.695分钟 104.695分钟
每日圈数 13.754239 13.754232
Detailed Information
使用方式:
暂无
2D Orbit Map
3D Orbit Map
Orbit Altitude Analysis Chart
Orbit Inclination Analysis Chart
Orbit Comprehensive Analysis Chart
View Comprehensive Chart